Location: Lafig�re
(44.4503°N, 4.0357°E)
Time: 16:36:40
(UTC+00:00)

NOSS 3-4 (C) - Pass Details

Date: 24 September 2020
Orbit: 886 x 1326 km, 63.4° (Epoch: 19 October)

Event Time Altitude Azimuth Distance (km) Brightness Sun altitude
Rises 19:52:56 0° 225° (SW) 3,481 6.7 -24.4°
Reaches altitude 10° 19:55:24 10° 228° (SW) 2,555 5.9 -24.8°
Maximum altitude 20:01:15 67° 311° (NW) 998 3.7 -25.8°
Drops below altitude 10° 20:07:34 10° 34° (NE) 2,740 5.8 -26.8°
Sets 20:10:17 0° 37° (NE) 3,752 6.5 -27.2°
